DW9987 Weather Reports


Display with metric or nautical units.
time (UTC)temp
F
wind
direction
speed
MPH
gust
MPH
rain 1hr
in
rain 24hr
in
rain mn
in
humidity
%
barometer
mb
20260502123010 33 106 0.0 0.0 0.00 0.00 0.00 94 1021.1
20260502121505 32 107 0.0 0.0 0.00 0.00 0.00 94 1021.0
20260502114610 31 107 0.0 0.0 0.00 0.00 0.00 93 1020.7
20260502113058 31 106 0.0 0.0 0.00 0.00 0.00 93 1020.5
20260502111559 30 107 0.0 0.0 0.00 0.00 0.00 93 1020.4
20260502110058 30 106 0.0 0.0 0.00 0.00 0.00 93 1020.4
20260502104556 30 106 0.0 0.0 0.00 0.00 0.00 92 1020.4
20260502103055 30 106 0.0 0.0 0.00 0.00 0.00 92 1020.3
20260502101622 31 107 0.0 0.0 0.00 0.00 0.00 92 1020.4
20260502090107 31 106 0.0 0.0 0.00 0.00 0.00 91 1020.1
20260502070054 33 107 0.0 0.0 0.00 0.01 0.00 88 1020.3
20260502064537 34 107 0.0 0.0 0.00 0.01 0.00 88 1020.4
20260502063039 34 106 0.0 0.0 0.00 0.01 0.00 88 1020.5
20260502061536 34 106 0.0 0.0 0.00 0.01 0.00 88 1020.6
20260502060035 34 106 0.0 0.0 0.00 0.01 0.00 87 1020.6
20260502054534 34 106 0.0 0.0 0.00 0.01 0.00 86 1020.7
20260502053031 34 106 0.0 0.0 0.00 0.01 0.00 86 1020.7
20260502051530 35 106 0.0 0.0 0.00 0.01 0.00 85 1020.7
20260502050027 35 106 0.0 0.0 0.00 0.01 0.00 84 1020.7
20260502044525 35 106 0.0 0.0 0.00 0.01 0.01 84 1020.7
20260502043024 36 106 0.0 0.0 0.00 0.01 0.01 83 1020.6
20260502041522 36 106 0.0 0.0 0.00 0.01 0.01 81 1020.5
20260502040018 37 106 0.0 0.0 0.00 0.01 0.01 79 1020.5
20260502034522 38 106 0.0 1.0 0.00 0.01 0.01 77 1020.4
20260502033013 39 105 0.0 1.0 0.00 0.01 0.01 75 1020.3
20260502031511 39 288 0.0 1.0 0.00 0.01 0.01 74 1020.1
20260502030010 40 175 0.0 2.0 0.00 0.02 0.01 74 1020.1
20260502024509 40 135 0.0 2.0 0.00 0.02 0.01 74 1019.9
20260502023006 41 77 0.0 2.0 0.00 0.02 0.01 74 1019.7
20260502021504 41 178 0.0 4.0 0.00 0.02 0.01 75 1019.5
20260502020004 42 135 0.0 5.0 0.00 0.03 0.01 75 1019.4
20260502014600 42 78 0.0 3.0 0.00 0.03 0.01 76 1019.0
20260502013110 43 30 0.0 2.0 0.00 0.03 0.01 76 1018.7
20260502011607 44 343 0.0 0.0 0.00 0.03 0.01 74 1018.5
20260502010054 45 342 0.0 1.0 0.00 0.03 0.01 72 1018.1
20260502004611 46 342 0.0 1.0 0.00 0.06 0.01 71 1018.0
20260502003057 47 199 0.0 3.0 0.00 0.06 0.01 69 1017.9
20260502001608 47 163 0.0 2.0 0.00 0.06 0.01 66 1017.7
20260502000100 48 138 0.0 4.0 0.00 0.06 0.01 63 1017.5
20260501234605 49 15 0.0 5.0 0.00 0.06 0.01 62 1017.6
20260501233058 49 355 5.0 10.0 0.00 0.06 0.01 59 1017.7
20260501231554 49 43 4.0 10.0 0.00 0.06 0.01 57 1017.5
20260501230050 50 355 2.0 8.0 0.00 0.06 0.01 57 1017.7
20260501224549 49 5 2.0 7.0 0.00 0.07 0.01 56 1017.9
20260501223050 50 17 2.0 8.0 0.00 0.07 0.01 56 1018.0
20260501221547 49 350 1.0 8.0 0.00 0.07 0.01 55 1018.0
20260501220119 50 24 4.0 6.0 0.00 0.07 0.01 55 1017.9
20260501214546 50 315 4.0 9.0 0.00 0.09 0.01 55 1018.1
20260501213053 50 355 2.0 7.0 0.00 0.09 0.01 56 1018.0
20260501211546 49 27 5.0 11.0 0.00 0.09 0.01 53 1017.9
20260501204548 50 13 5.0 10.0 0.00 0.14 0.01 52 1018.0
20260501203044 50 24 4.0 12.0 0.00 0.14 0.01 53 1018.0
20260501201545 50 5 4.0 9.0 0.00 0.14 0.01 51 1018.1
20260501200043 50 336 3.0 10.0 0.00 0.14 0.01 51 1017.9
20260501194545 50 12 4.0 12.0 0.00 0.14 0.01 52 1017.9
20260501193047 50 11 3.0 7.0 0.00 0.14 0.01 52 1017.8
20260501191541 50 19 4.0 8.0 0.00 0.14 0.01 53 1017.9
20260501190041 50 322 5.0 9.0 0.00 0.14 0.01 51 1017.9
20260501184538 50 360 6.0 10.0 0.00 0.14 0.01 52 1017.6
20260501183056 49 348 4.0 10.0 0.00 0.14 0.01 53 1017.7
20260501181556 50 14 3.0 8.0 0.00 0.14 0.01 52 1017.6
20260501180036 50 5 6.0 9.0 0.00 0.14 0.01 52 1017.4
20260501174536 49 355 5.0 12.0 0.00 0.14 0.01 54 1017.5
20260501173043 49 360 6.0 13.0 0.00 0.14 0.01 53 1017.5
20260501171535 50 355 1.0 13.0 0.00 0.14 0.01 52 1017.4
20260501170032 51 24 4.0 13.0 0.00 0.14 0.01 54 1017.4
20260501164541 51 19 5.0 11.0 0.00 0.14 0.01 56 1017.5
20260501163039 50 15 7.0 11.0 0.00 0.14 0.01 56 1017.4
20260501161525 49 360 6.0 11.0 0.00 0.14 0.01 60 1017.4
20260501160044 49 5 4.0 11.0 0.00 0.14 0.01 63 1017.4
20260501154525 49 15 5.0 10.0 0.00 0.14 0.01 65 1017.5
20260501153021 48 21 4.0 8.0 0.00 0.14 0.01 67 1017.4
20260501151519 47 5 2.0 8.0 0.00 0.14 0.01 69 1017.5
20260501150016 47 19 4.0 7.0 0.00 0.14 0.01 73 1017.6